Погода в Рокитном

Украина / Ровненская область     51°16′04″N   27°13′06″E
темп.,
°C
ветер,
м/с
пор.,
м/с
влажн.,
%
обл.,
%
осадки,
мм/ч
давл.,
гПа
погр.,
м
28 ноября, вс
вс2823:000юз24905 0.0 100378
02:000ю229168 0.0 100332
05:00+1ююв3392100 0.0 100259
08:00+3ююв3684100 0.0 1002131
11:00+5юв2381100 0.0 1002174
14:00+6в3782100 0.0 1000302
17:00+6юв3891100 1.1 999245
20:00+6ю2390100 1.6 99865
29 ноября, пн
пн2923:00+4ююв34925 0.0 99763
02:00+4юв499492 0.0 996151
05:00+5юв41296100 0.0 993286
08:00+6ююв51397100 0.0 992506
11:00+8ююв3688100 0.1 989577
14:00+7з3690100 0.1 987317
17:00+3зсз71296100 1.5 987668
20:00+1з71596100 6.2 989679
30 ноября, вт
вт3023:00+1з81591100 2.5 989969
02:00+1з81696100 2.8 9911177
05:00+1з81696100 0.7 9931175
08:00+1з10179197 1.5 9951278
11:00+1з81581100 0.1 9971199
14:00+1зсз8138399 0.4 9981089
17:00−1з6127812 0.0 999676
20:00−1юз51284100 0.0 998671
1 декабря, ср
ср123:00−1юз61495100 0.6 995869
02:000зюз71497100 2.6 993973
05:00+1з61398100 0.8 9941006
08:00+1зсз51198100 1.5 997834
11:00+1з4998100 0.7 999663
14:00+1з5893100 1.3 1001777
17:00+1зюз4898100 0.3 1001547
20:00+1ююз4998100 0.3 1000440
2 декабря, чт
чт223:00+3юз71598100 1.3 9981025
02:00+4юз71593100 1.8 997990
05:00+5зюз71580100 0.0 997929
08:00+5зюз71486100 0.0 998962
11:00+6юз6128198 0.0 999938
14:00+7юз6117897 0.1 9991005
17:00+5ююз51182100 0.0 1000602
20:00+5ююз4990100 0.7 1000929